Location: Kelshall
(52.0000°N, 0.0500°W)
Time: 15:29:17
(UTC+00:00)

SPOT 5 - Pass Details

Date: 18 September 2020
Orbit: 623 x 815 km, 98.3° (Epoch: 28 October)

Event Time Altitude Azimuth Distance (km) Brightness Sun altitude
Exits shadow 22:19:27 37° 292° (WNW) 1,211 4.3 -33.0°
Drops below altitude 10° 22:23:27 10° 334° (NNW) 2,394 6.4 -33.3°
Sets 22:25:58 0° 341° (NNW) 3,343 7.4 -33.5°
